Regional Weather Roundup
Issued by NWS

Current Version | Previous Version | Text Only | Print | Product List | Glossary On
Versions: 1 2 3 4 5 6 7 8 9 10 11 12 13 14 15 16 17 18 19 20 21 22 23 24 25 26 27 28 29 30 31 32 33 34 35 36 37 38 39 40 41 42 43 44 45 46 47 48 49 50
000
ASUS43 KFSD 281510
RWRSD

WEATHER ROUNDUP FOR SOUTH DAKOTA
NATIONAL WEATHER SERVICE SIOUX FALLS SD
900 AM CST TUE FEB 28 2017

NOTE: "FAIR" INDICATES FEW OR NO CLOUDS BELOW 12,000 FEET WITH NO
SIGNIFICANT WEATHER AND/OR OBSTRUCTIONS TO VISIBILITY.


SDZ001>005-009-010-012>017-281600-
NORTHWEST AND NORTH CENTRAL SOUTH DAKOTA

CITY           SKY/WX    TMP DP  RH WIND       PRES   REMARKS
BUFFALO          N/A     20  17  88 E7        29.66R WCI  11
FAITH            N/A     22  21  96 NE13      29.75R WCI  10
MOBRIDGE       CLOUDY    23  14  68 NE9       29.80R WCI  13
$$

SDZ012>016-024>037-041>051-057-063-072>074-281600-
SOUTHWEST AND SOUTH CENTRAL SOUTH DAKOTA

CITY           SKY/WX    TMP DP  RH WIND       PRES   REMARKS
RAPID CTY ARPT CLOUDY    23  21  92 N13       29.70R FOG     WCI  11
PIERRE         LGT SNOW  25  23  92 NE9       29.76S FOG     WCI  15
CUSTER         SUNNY     20  12  71 W7        29.57S WCI  11
ELLSWORTH AFB  CLOUDY    23  23 100 NE7       29.69  FOG     WCI  15
PHILIP         FOG       27  27 100 E9        29.73R VSB 1/2 WCI  18
PINE RIDGE     CLOUDY    25  13  60 SW9       29.71R WCI  15
SPEARFISH      FOG       19  19 100 NE6       29.68R VSB 3/4 WCI  11
WINNER         CLOUDY    32  30  92 N5        29.75S FOG     WCI  27
$$

SDZ004>011-016>023-039-040-281600-
NORTHEAST SOUTH DAKOTA

CITY           SKY/WX    TMP DP  RH WIND       PRES   REMARKS
ABERDEEN       CLOUDY    18  14  84 N17       29.82S WCI   3
WATERTOWN      CLOUDY    25  22  88 NE10      29.74R WCI  15
BROOKINGS      CLOUDY    31  29  92 NE8       29.71S WCI  23
SISSETON         N/A     22  20  92 N15       29.81R WCI   9
$$

SDZ017-020-022-023-036>040-048>070-281600-
SOUTHEAST SOUTH DAKOTA

CITY           SKY/WX    TMP DP  RH WIND       PRES   REMARKS
SIOUX FALLS    PTSUNNY   35  31  85 N15       29.70R WCI  25
HURON          CLOUDY    28  26  92 N12       29.77R WCI  18
CHAMBERLAIN    CLOUDY    30  28  94 N5        29.76S FOG     WCI  25
MITCHELL       CLOUDY    33  32  96 N9        29.75R WCI  25
YANKTON        MOSUNNY   34  28  80 NW14      29.70R WCI  24
$$

ABBREVIATIONS USED IN REMARKS
   TC - TEMPERATURE IN CELSIUS
  WCI - WIND CHILL INDEX
   HX - HEAT INDEX
  VSB - VISIBILITY





USA.gov is the U.S. government's official web portal to all federal, state and local government web resources and services.